GFSFLT2_prec_cthk_036.txt.gz
RH
39 35 33 31 28 23 20 17 15 14 13 20 20 23 31 32 33 35 37 40 42 44 45 46 47 53 55
37 35 34 29 24 20 17 15 14 13 15 22 26 29 32 35 39 43 45 45 47 47 49 50 52 53 54
39 37 31 25 21 18 17 13 14 17 21 25 30 33 38 38 38 40 37 37 38 39 43 50 54 54 54
35 31 27 22 20 20 17 15 21 25 29 33 35 34 34 35 35 33 33 34 37 39 39 46 49 55 55
30 28 24 23 21 19 21 25 27 34 35 35 36 35 37 39 39 38 37 37 42 46 46 47 49 51 56
29 30 25 23 21 23 30 34 35 40 40 37 41 38 41 44 46 45 45 48 46 46 46 45 50 53 54
31 28 25 22 27 33 40 45 44 42 45 38 44 42 45 48 51 50 51 53 53 52 50 49 51 51 54
26 22 23 29 39 46 50 48 46 48 54 45 51 47 48 48 53 56 60 59 57 57 54 54 57 56 54
22 25 35 44 53 54 52 55 52 54 63 55 51 49 48 48 56 66 71 69 65 61 59 58 59 59 54
24 34 47 54 57 60 62 63 63 58 65 61 57 62 51 50 59 71 74 76 72 66 62 61 65 61 55
36 49 54 57 61 67 70 70 68 67 74 74 64 67 71 60 59 70 71 72 69 67 67 64 62 62 57
51 54 58 63 67 70 72 74 76 76 76 83 73 76 75 68 64 65 69 67 65 62 63 62 62 61 60
57 63 65 66 68 69 73 76 77 84 86 84 79 80 78 72 65 61 62 62 70 67 65 65 66 67 67
65 64 65 68 71 73 73 77 77 78 86 83 83 81 75 74 75 76 80 79 76 80 80 81 82 80 77
67 66 68 71 75 76 76 77 79 75 73 80 83 78 76 88 94 90 86 86 85 85 86 85 86 86 83
68 69 74 78 74 74 75 76 75 74 73 72 72 81 89 88 91 87 84 83 86 91 91 86 86 90 88
69 74 83 84 83 81 79 77 77 79 84 92 94 95 92 89 88 89 83 85 87 87 88 88 85 87 87

GFSFLT2_prec_cthk_039.txt.gz
RH
65 60 52 46 40 33 31 29 26 23 19 16 21 23 25 30 31 33 33 35 35 36 37 38 39 41 41
62 55 47 40 35 34 32 26 21 17 15 15 22 24 27 29 33 35 35 37 38 38 37 37 38 39 40
50 42 39 39 35 29 23 19 16 14 15 18 22 24 30 32 35 36 36 34 33 35 37 38 38 39 40
40 40 37 30 26 23 20 18 16 17 17 22 26 30 32 33 34 32 32 32 34 35 36 36 36 40 41
36 31 27 25 24 23 21 18 20 22 23 27 32 34 36 37 37 37 35 35 38 42 42 46 45 42 44
28 27 27 27 25 23 22 27 27 29 33 32 38 37 41 40 40 40 41 42 47 47 48 48 47 46 46
28 27 27 24 25 25 30 34 37 40 45 35 43 42 46 46 49 49 49 49 51 50 49 49 50 51 54
26 23 24 25 30 34 39 42 42 44 55 44 50 48 49 49 52 53 55 56 55 56 56 56 57 59 60
21 22 24 29 39 43 46 48 47 51 63 58 53 52 50 49 54 61 66 65 63 61 61 63 63 63 60
20 21 31 41 50 54 57 60 62 56 63 64 61 64 53 50 53 65 71 74 72 69 66 66 68 65 60
23 37 45 52 59 65 66 66 65 65 71 73 66 70 71 60 56 66 70 70 70 68 68 67 65 64 60
43 50 58 62 63 65 67 69 70 70 71 79 74 76 73 70 67 64 67 67 66 63 63 63 64 65 65
57 60 62 63 64 67 70 68 66 73 77 77 77 76 76 71 66 64 67 68 74 72 73 79 83 84 80
61 62 61 64 73 74 71 68 64 64 74 76 75 76 77 83 91 87 85 86 83 84 84 85 86 86 85
61 61 64 74 80 85 87 85 84 78 76 82 89 93 93 92 90 87 86 85 83 83 86 87 90 90 88
62 64 68 74 81 85 88 89 89 89 89 91 92 92 90 89 88 85 83 81 83 88 92 88 87 91 90
64 67 69 71 75 83 86 88 89 90 91 93 93 94 91 89 89 93 83 85 88 89 91 91 89 89 91

GFSFLT2_prec_cthk_042.txt.gz
RH
89 83 77 71 66 59 48 39 36 33 29 27 23 27 27 28 30 30 32 32 32 32 33 34 35 37 44
86 78 70 63 50 41 38 34 33 28 22 17 19 23 24 26 27 29 29 28 31 33 36 36 37 37 38
72 64 53 45 40 36 34 29 23 19 16 17 20 21 20 26 28 32 32 32 34 35 37 38 38 38 38
55 47 41 38 34 29 26 23 21 18 16 20 23 25 26 29 30 31 31 31 34 36 37 37 38 40 42
47 41 32 27 27 28 26 22 22 20 19 23 28 28 31 34 36 36 36 37 38 42 42 42 45 45 45
29 28 28 28 29 28 26 25 24 26 28 27 34 33 38 39 42 45 45 45 46 49 48 49 51 50 47
27 28 29 30 29 25 24 26 31 34 39 30 40 39 44 46 52 53 54 53 52 53 52 50 49 50 49
26 24 23 23 24 27 32 35 37 42 51 42 48 46 48 50 56 59 61 60 58 56 58 55 54 55 55
18 18 19 21 30 35 40 45 46 51 58 55 52 49 48 50 56 63 68 66 63 59 57 56 56 56 56
14 16 26 35 44 50 53 54 55 53 60 58 54 58 48 51 57 63 64 67 65 61 59 59 60 61 58
19 34 43 49 53 55 56 60 63 63 62 63 57 60 63 56 53 58 63 64 65 63 62 61 60 60 58
42 47 50 53 53 55 65 70 73 74 73 74 68 68 67 63 60 62 67 67 66 63 66 71 76 79 79
48 51 52 52 54 63 71 75 79 82 83 83 83 85 86 83 81 82 79 80 81 80 82 82 80 82 83
52 51 52 54 59 64 70 75 77 81 85 86 88 89 89 90 86 80 83 84 83 82 80 81 83 84 85
53 53 56 59 63 66 67 70 74 76 79 87 91 95 96 92 86 83 80 80 77 79 86 87 89 90 88
55 57 59 62 63 65 70 72 72 75 78 83 86 89 90 89 90 84 81 79 82 86 89 86 85 88 90
59 61 62 64 66 64 65 68 66 67 73 79 85 89 86 84 87 95 86 88 88 87 89 89 86 85 92

GFSFLT2_prec_cthk_045.txt.gz
RH
86 94 98 96 90 85 76 64 54 48 42 37 32 29 32 30 28 27 29 34 35 34 35 35 35 36 39
94 97 95 88 80 72 63 55 46 39 36 29 21 20 20 20 25 26 29 30 29 31 33 35 36 37 37
97 90 83 75 67 55 47 42 38 29 20 18 18 18 19 20 28 29 29 30 32 33 35 36 39 39 38
83 75 64 55 48 40 32 26 24 20 19 20 21 22 23 25 25 26 27 28 30 34 35 36 37 37 41
60 50 42 33 28 29 29 26 24 19 19 20 22 24 27 29 30 32 33 34 34 37 41 41 42 44 45
40 33 29 27 28 26 25 24 22 22 24 27 31 30 32 35 40 42 44 45 46 50 49 49 49 48 51
27 27 28 25 21 20 21 24 29 32 33 32 39 37 41 43 47 48 49 50 50 53 55 53 53 54 56
25 22 18 18 21 22 28 35 38 40 42 39 41 41 42 41 44 46 48 50 52 53 57 56 57 59 58
13 13 15 16 26 35 40 43 42 43 48 48 49 45 40 39 41 46 49 51 53 52 53 53 56 56 54
11 13 22 35 40 43 44 44 48 51 56 58 60 59 52 50 50 51 52 55 57 57 57 57 57 58 56
19 34 39 42 44 45 45 49 55 61 65 66 63 66 68 65 69 70 70 70 70 70 71 72 73 73 72
38 41 43 45 45 47 49 54 59 63 67 71 69 71 72 72 72 75 76 75 72 71 71 74 75 76 78
43 46 46 47 49 51 54 57 61 67 68 70 72 74 76 77 75 75 70 74 76 74 73 72 75 77 77
46 48 48 51 53 55 56 55 55 60 64 64 67 73 77 80 80 75 75 75 75 74 73 76 81 87 89
48 50 51 53 56 58 59 59 56 52 55 61 65 70 76 81 79 79 77 77 74 75 80 79 83 86 85
51 53 56 58 59 61 63 63 56 53 57 58 62 67 70 78 88 84 82 79 82 87 89 84 80 87 89
56 58 59 61 63 64 65 60 57 62 59 53 59 67 69 74 84 95 87 86 87 86 89 91 88 87 88

GFSFLT2_prec_cthk_051.txt.gz
RH
89 92 97 96 93 94 94 96 93 94 89 85 78 70 61 56 53 49 47 47 48 46 45 45 46 44 43
97 95 98 96 98 97 97 94 87 82 79 73 66 58 50 41 37 33 33 36 36 35 34 35 37 36 35
82 87 91 94 97 95 95 89 83 75 68 58 45 37 31 29 26 24 25 25 26 26 27 26 26 28 30
92 98 97 92 87 81 75 71 62 46 38 33 26 24 22 20 19 19 19 19 19 21 24 26 26 27 28
96 89 82 79 69 59 48 38 30 24 24 20 21 20 18 18 20 21 22 25 27 28 30 30 30 31 34
71 70 60 46 38 32 23 21 16 15 19 16 20 20 21 23 24 26 29 32 32 34 33 31 31 32 35
34 33 27 22 21 18 16 15 14 18 25 22 24 25 26 28 31 33 34 35 36 37 39 40 38 39 41
18 15 17 17 17 16 16 17 25 30 33 27 27 27 27 30 36 38 40 42 43 43 44 46 49 50 50
12 10 9 9 9 10 22 30 31 31 32 33 32 33 31 30 35 40 44 46 48 50 51 52 55 57 56
12 13 11 13 22 29 32 32 35 37 39 39 39 39 33 30 33 40 44 46 50 55 59 61 63 63 60
13 15 24 31 33 34 35 38 40 43 45 47 44 44 44 36 33 39 44 46 49 55 60 64 64 63 62
24 30 32 35 36 37 38 41 44 47 50 51 49 48 44 43 42 40 42 47 51 54 61 67 66 66 67
32 35 37 37 38 40 42 45 48 50 53 56 53 49 48 52 49 46 41 40 52 57 62 70 70 68 71
36 38 40 42 44 46 49 51 53 54 57 56 51 51 55 58 57 50 42 44 48 58 63 71 77 80 79
40 44 47 49 51 53 55 57 57 58 56 54 53 57 59 60 57 51 43 43 52 58 63 72 80 82 81
47 50 53 55 57 58 59 60 60 59 60 59 58 59 59 60 63 50 43 44 52 58 63 73 81 84 86
51 54 56 59 60 61 62 63 62 64 65 65 66 65 60 58 60 56 47 51 54 56 63 74 84 84 89

GFSFLT2_prec_cthk_054.txt.gz
RH
98 98 95 97 97 97 90 94 93 95 97 96 94 88 83 75 65 62 57 57 54 50 47 44 44 44 47
97 100 90 86 81 87 83 84 83 88 90 84 83 81 71 64 57 50 46 43 43 43 39 38 40 43 44
78 73 71 71 79 89 94 97 95 90 81 71 61 53 50 42 37 34 34 32 31 30 29 28 27 26 26
71 78 84 79 85 85 83 80 77 63 51 43 36 31 21 19 23 21 20 20 23 24 24 24 24 25 26
85 83 85 85 81 71 60 49 34 28 22 14 14 14 14 16 17 18 19 23 26 27 28 29 29 30 31
83 72 62 52 41 34 27 18 14 11 11 9 16 15 18 20 22 23 24 26 31 33 34 35 35 36 36
43 31 27 27 19 16 15 13 10 10 15 15 21 22 23 23 24 24 26 27 30 32 34 38 41 43 44
17 14 13 13 13 12 11 10 10 20 25 22 24 24 26 27 27 27 28 29 30 32 37 44 47 49 50
12 11 10 10 10 10 10 17 24 26 27 27 29 30 31 32 31 30 31 31 32 31 34 44 49 51 53
12 11 10 10 12 20 26 28 29 30 32 34 36 37 34 37 37 37 38 36 31 32 36 41 45 51 55
11 11 14 21 26 29 30 32 33 35 37 41 41 42 44 40 39 39 44 44 38 31 34 43 45 51 59
15 23 26 28 30 32 34 36 38 41 44 47 48 49 49 45 40 41 45 46 41 33 32 39 48 53 57
27 29 32 33 35 37 40 43 46 49 52 54 55 55 53 48 46 46 47 47 44 37 35 39 46 53 57
31 34 36 39 42 44 45 48 51 53 56 58 60 57 54 55 54 51 52 54 45 37 37 40 48 54 60
36 38 42 45 48 50 52 54 56 57 59 62 61 63 62 61 59 56 52 53 51 42 41 43 48 53 59
40 44 48 51 54 56 58 60 60 61 62 63 65 66 64 62 66 60 57 55 53 47 45 45 44 51 56
46 50 54 57 59 61 62 64 65 65 66 67 68 68 64 60 63 69 61 58 55 50 48 48 45 46 53

GFSFLT2_prec_cthk_057.txt.gz
RH
89 95 98 95 99 98 95 93 95 91 88 83 88 90 85 87 85 80 76 72 65 62 61 58 53 49 47
97 96 99 97 96 95 87 85 83 83 83 82 89 89 88 88 84 71 62 57 53 53 51 49 46 45 45
95 97 95 91 88 84 80 81 85 85 87 89 86 83 73 58 47 40 40 38 38 36 32 29 29 28 28
85 81 78 79 80 83 87 84 82 75 71 61 47 31 20 19 20 19 17 16 17 21 22 23 22 22 23
85 81 83 87 88 83 67 57 45 35 25 17 12 11 11 13 13 15 16 17 19 23 25 25 26 27 28
87 84 77 66 51 36 30 28 19 14 10 8 11 12 15 17 19 21 22 22 22 24 26 27 29 30 32
43 33 26 20 16 15 16 15 13 10 10 10 16 19 22 23 24 24 24 24 23 23 24 26 28 29 32
11 12 13 14 15 14 13 11 9 9 17 21 23 24 26 28 28 28 27 27 28 28 27 27 28 31 31
17 16 14 13 12 11 10 11 18 24 26 26 27 28 31 32 33 34 32 31 35 36 34 31 30 33 33
16 13 11 11 12 14 21 24 27 28 30 31 32 32 33 35 38 39 36 35 41 41 39 36 31 29 30
11 11 12 18 24 26 28 29 31 33 34 36 36 38 41 41 44 42 39 40 42 43 42 38 35 32 33
13 19 25 28 28 29 31 33 35 38 40 43 45 47 49 49 46 44 43 44 44 44 43 41 39 35 36
28 29 29 29 31 33 36 38 41 43 45 48 50 52 53 53 49 49 49 50 49 46 45 45 42 36 35
29 29 31 33 36 38 41 44 46 47 49 51 53 54 55 55 55 52 53 54 55 51 48 47 45 40 40
31 33 36 38 41 43 47 49 51 52 54 55 56 58 59 57 56 55 53 54 56 53 50 48 48 44 42
35 37 40 43 45 49 53 56 57 58 60 61 60 60 61 61 62 55 57 57 57 54 51 50 48 50 46
39 42 46 50 52 56 61 65 67 68 69 70 70 69 63 62 64 68 64 62 60 55 50 51 50 49 48

GFSFLT2_prec_cthk_060.txt.gz
RH
90 91 97 98 93 98 98 99 95 94 95 96 89 87 87 88 87 85 83 81 83 82 79 73 66 62 61
92 93 97 90 96 98 94 96 95 92 92 87 87 87 85 85 83 83 83 81 74 67 62 58 56 50 50
83 90 87 94 91 91 90 93 93 88 89 85 79 83 81 75 73 67 59 50 42 38 38 36 34 33 32
89 87 88 88 89 90 92 89 86 82 77 71 68 59 48 37 25 16 13 13 15 16 19 22 22 22 22
91 84 84 85 90 90 86 82 73 57 39 26 19 16 11 9 9 11 12 14 15 16 20 24 25 25 25
93 90 81 68 51 36 29 22 17 15 13 11 12 9 10 11 12 14 17 19 20 21 22 24 26 25 25
23 21 21 19 16 16 15 15 15 15 11 8 10 13 15 19 22 23 24 24 24 23 22 21 23 26 26
13 15 15 16 17 16 16 15 13 11 11 13 19 22 23 24 24 26 28 28 27 26 26 27 27 26 30
19 20 19 18 19 15 13 13 12 17 23 25 24 25 26 28 29 30 31 32 31 29 31 33 33 32 30
20 18 14 14 15 15 16 20 25 26 27 27 27 28 29 31 32 34 36 37 35 35 36 37 37 35 33
16 15 16 17 20 24 26 27 28 30 31 31 31 34 36 38 40 42 43 41 40 40 40 40 39 38 36
17 18 23 28 29 29 29 30 31 31 34 37 40 42 44 45 46 47 47 45 46 47 46 45 44 43 41
25 29 31 32 32 32 33 32 34 37 39 42 44 46 47 49 49 49 49 49 51 51 52 51 51 49 45
33 33 34 33 34 35 34 36 39 43 46 50 51 51 51 52 52 53 53 52 53 53 52 53 54 52 50
36 36 36 37 38 38 39 42 46 49 52 56 57 57 57 57 57 56 55 56 57 55 52 51 52 51 49
38 40 40 40 39 42 46 50 53 57 61 66 67 66 64 63 63 62 62 59 60 59 60 57 52 52 48
43 43 44 42 47 52 56 61 64 66 70 75 77 76 73 70 71 75 71 72 68 65 65 63 55 51 50

GFSFLT2_prec_cthk_063.txt.gz
RH
74 83 88 95 94 92 95 97 98 98 95 96 94 93 95 92 91 87 88 90 89 89 89 89 87 85 76
73 80 82 90 90 89 89 90 89 94 97 92 88 88 90 90 88 87 84 83 84 86 86 82 77 70 65
77 79 87 88 86 82 86 83 82 87 87 86 85 86 86 80 77 78 76 72 67 62 55 50 45 41 39
77 81 85 85 81 84 84 86 85 88 86 85 79 71 66 62 56 47 39 30 22 17 14 14 16 20 23
74 81 84 85 85 80 71 69 66 61 54 48 44 40 32 24 17 12 10 10 10 11 13 15 22 23 24
43 43 43 42 40 36 33 30 27 21 17 14 12 10 9 8 8 9 10 11 13 14 17 21 22 23 23
14 15 15 15 16 15 16 16 15 13 11 9 9 8 9 10 11 13 16 19 20 21 22 22 23 24 24
16 16 17 16 16 15 14 13 13 13 13 11 11 14 17 19 20 21 22 24 25 25 25 25 25 25 26
22 22 22 21 20 18 17 16 15 15 17 19 21 22 23 22 23 24 26 27 29 30 30 29 28 29 30
23 22 21 19 19 20 19 19 22 24 26 27 27 27 25 24 27 30 32 33 35 35 34 34 35 36 36
21 20 20 20 21 23 27 30 31 31 32 32 31 32 31 30 32 36 37 38 39 40 39 39 39 40 40
21 21 22 26 30 32 33 32 33 34 36 37 36 36 38 37 38 41 42 42 42 42 42 43 44 45 44
24 27 31 34 35 35 36 37 37 38 38 38 39 42 45 45 46 47 46 45 45 46 45 47 48 48 47
31 35 36 37 38 39 40 40 39 40 42 44 47 49 51 52 54 54 55 53 53 53 49 49 51 52 51
37 39 40 42 43 43 42 42 40 43 48 52 54 57 58 58 59 62 64 63 62 61 57 53 54 55 55
39 42 44 45 45 45 45 44 45 52 57 63 67 67 67 66 68 71 74 75 75 71 69 64 61 64 59
39 40 43 46 45 44 45 47 50 54 63 70 76 79 77 74 79 85 82 84 79 77 75 70 63 63 59

GFSFLT2_prec_cthk_066.txt.gz
RH
52 56 61 63 69 76 89 90 94 97 98 98 98 98 98 98 98 98 97 96 94 93 91 95 95 95 97
54 58 61 68 69 75 85 82 87 90 91 95 96 97 94 91 88 89 90 89 92 91 87 88 90 88 91
53 57 61 65 70 72 75 76 82 84 84 85 90 88 87 90 88 88 86 82 81 81 81 75 67 64 63
51 50 52 54 57 62 68 68 66 65 68 67 67 68 68 66 63 59 56 54 49 40 33 26 22 21 26
33 37 41 42 42 42 43 43 43 44 45 47 50 49 48 45 39 33 25 19 14 11 10 11 12 17 21
26 25 23 22 22 23 24 24 24 22 20 18 16 14 12 10 10 10 10 9 9 11 12 16 23 24 24
17 17 17 17 18 18 18 18 16 15 15 12 13 13 12 11 11 11 12 14 16 18 20 21 22 23 23
22 22 20 20 20 19 19 18 16 15 15 14 13 15 16 16 16 18 20 21 22 22 23 24 23 23 22
24 24 24 24 23 20 19 18 16 15 16 18 18 20 21 23 23 23 24 25 26 26 27 28 28 28 27
24 23 22 21 20 20 19 19 20 22 24 25 25 26 26 26 26 26 27 28 29 29 31 32 33 31 31
23 22 22 21 21 22 25 28 29 30 31 31 32 33 33 30 29 30 30 32 33 34 35 37 38 36 35
26 26 26 27 30 33 34 34 34 34 36 38 37 37 36 33 30 32 34 37 38 40 41 42 42 40 40
32 33 35 38 40 40 40 38 37 39 41 42 41 38 36 37 37 40 42 45 46 46 46 47 45 46 46
38 40 42 44 45 45 44 43 42 44 46 45 44 41 42 44 46 49 54 56 61 59 56 55 53 52 52
42 41 43 47 48 49 48 47 47 47 47 50 49 50 51 54 56 61 66 70 72 72 69 66 65 64 61
46 44 44 47 49 50 49 47 48 47 45 46 49 52 55 59 63 65 72 77 84 82 81 76 73 77 72
47 46 46 46 46 44 41 45 44 43 42 45 49 53 56 58 61 69 73 85 91 92 92 87 78 79 75

GFSFLT2_prec_cthk_069.txt.gz
RH
47 46 48 48 50 51 54 61 67 69 82 87 90 93 96 97 97 97 97 97 97 98 97 98 97 94 95
47 46 46 48 50 50 55 59 63 67 71 75 81 91 96 98 98 97 97 97 96 97 98 97 97 93 89
45 46 42 42 44 44 46 51 56 57 61 64 72 77 83 86 87 87 86 88 87 88 86 85 84 85 86
30 33 30 32 34 34 36 38 40 40 42 43 45 48 49 53 59 62 63 64 64 64 61 59 51 43 38
28 28 29 29 30 29 29 30 31 33 36 37 40 42 43 44 45 44 44 43 39 31 23 16 12 11 11
19 19 20 20 20 20 19 19 18 17 17 16 15 14 14 14 14 13 13 13 12 11 11 11 12 17 21
22 22 22 22 21 20 20 19 18 18 17 15 14 14 13 12 12 12 12 12 13 13 14 17 22 24 24
25 25 24 23 22 21 21 19 18 18 17 17 16 16 17 17 17 18 19 20 22 23 24 24 25 24 23
28 27 25 25 23 22 21 20 19 19 20 22 22 22 23 22 23 24 25 27 27 27 26 26 26 26 25
29 28 26 25 24 24 24 23 24 27 28 29 28 28 28 29 29 29 29 29 29 29 29 29 28 28 27
32 31 30 29 29 29 31 33 34 35 36 36 34 34 34 33 32 34 33 32 30 29 29 30 31 32 33
38 37 36 36 38 40 40 40 40 40 41 41 41 40 40 39 37 36 35 34 32 32 33 34 36 37 39
42 42 41 42 45 46 46 45 45 45 46 47 47 46 44 44 40 38 36 37 39 39 41 42 43 43 44
42 42 42 44 48 50 50 50 51 52 54 53 49 47 49 47 45 42 46 47 50 50 50 50 51 51 52
46 44 44 44 43 41 42 46 50 50 48 49 50 50 46 43 41 45 49 52 55 59 59 60 64 67 65
48 43 37 33 31 31 33 37 42 43 44 45 47 45 44 40 42 45 48 51 56 59 64 67 72 81 79
35 33 33 33 32 32 34 38 43 46 48 50 48 49 45 46 46 51 53 58 58 59 63 67 69 84 90

GFSFLT2_prec_cthk_072.txt.gz
RH
48 46 46 44 46 44 46 46 50 52 55 58 64 65 74 85 94 97 97 97 97 96 97 97 97 97 96
49 48 46 45 41 42 44 43 44 48 51 48 53 61 70 76 84 90 95 96 97 96 96 96 95 96 95
32 31 35 36 33 35 36 36 35 38 40 41 43 42 46 52 59 73 81 85 86 85 87 87 88 88 91
29 29 29 29 29 29 31 32 33 34 36 38 39 40 41 43 44 46 50 54 61 68 71 71 72 74 73
25 25 25 25 24 23 22 22 22 24 26 27 31 33 35 38 40 41 42 44 45 46 46 46 45 41 34
20 21 22 22 22 22 22 21 23 20 18 18 17 17 17 17 17 18 19 20 21 20 18 15 13 11 11
24 24 25 24 25 26 24 23 23 23 19 18 17 17 16 16 15 14 14 13 12 13 13 13 13 15 20
30 30 30 29 27 26 25 24 24 22 20 20 19 19 19 19 18 18 18 17 17 17 18 20 24 27 28
31 31 31 30 29 29 30 29 31 30 26 27 27 26 26 25 25 25 25 25 26 26 26 28 31 30 28
35 34 33 33 33 33 32 32 33 39 35 34 33 33 32 31 32 32 31 30 29 30 30 30 31 31 31
36 36 35 35 35 35 36 40 42 42 43 42 41 41 42 41 39 38 38 37 36 35 32 33 33 33 31
39 38 38 38 39 41 43 44 45 45 43 40 39 42 47 49 48 48 45 41 38 37 37 35 33 31 31
41 40 40 42 44 45 46 43 37 34 35 36 38 43 45 47 46 44 42 43 43 40 39 36 36 36 36
45 44 43 43 43 40 34 33 33 34 35 36 38 40 44 46 45 46 48 46 45 45 43 43 43 43 43
49 49 47 42 32 30 29 29 30 32 34 36 37 40 45 46 46 46 44 43 43 42 44 45 48 51 51
53 50 40 31 29 28 29 30 32 34 36 38 37 41 45 47 50 47 47 47 47 46 48 47 46 51 54
54 42 35 31 31 32 34 35 38 40 42 44 47 51 54 58 54 51 52 51 49 49 52 53 50 50 54

GFSFLT2_prec_cthk_075.txt.gz
RH
48 47 47 46 43 40 41 40 40 39 39 42 43 45 46 50 62 72 84 93 98 98 98 98 98 96 97
45 39 35 36 40 39 34 34 34 33 33 34 37 39 41 41 46 50 61 79 87 96 98 98 97 97 97
38 33 28 26 27 26 25 27 29 32 33 33 36 38 38 40 44 46 49 52 60 73 82 87 89 90 93
31 30 29 28 28 28 28 28 28 29 31 33 35 37 37 37 40 44 46 48 49 52 55 58 64 70 72
26 24 24 23 21 22 22 22 24 23 23 23 23 26 31 35 35 36 39 44 47 47 46 47 47 46 48
23 25 28 25 25 24 25 26 27 28 23 21 21 20 19 18 18 19 22 26 30 35 39 40 38 36 32
30 29 30 29 29 29 29 27 26 26 23 22 23 21 21 19 18 17 16 15 15 15 15 14 14 14 13
33 32 32 31 31 31 30 29 30 32 27 27 28 26 26 26 23 23 22 20 19 18 17 17 17 17 23
34 33 33 31 31 32 32 33 33 37 32 33 33 33 32 31 31 30 30 29 29 29 28 28 30 32 31
35 34 34 33 33 33 33 32 33 38 40 39 37 36 34 31 27 26 27 29 30 34 36 36 35 34 33
39 38 37 36 35 35 35 38 40 42 43 41 34 29 28 28 28 29 29 31 33 37 42 43 42 40 37
41 40 39 39 38 39 40 42 44 43 39 33 30 30 31 31 30 31 32 32 34 37 38 37 36 36 36
48 47 45 43 43 43 43 45 42 33 31 30 30 30 31 32 32 32 33 35 38 41 43 42 43 42 39
55 53 51 48 47 46 42 34 26 26 27 28 30 31 33 34 35 35 36 39 41 42 43 46 46 44 42
60 58 55 52 50 45 32 26 26 26 27 30 31 33 35 36 37 39 41 42 43 46 49 45 43 41 40
64 61 59 56 53 39 30 30 30 33 34 36 37 38 39 43 47 50 51 51 53 53 50 46 40 42 44
68 66 64 61 46 33 34 35 37 38 39 40 41 46 48 51 54 56 53 56 55 50 49 46 43 45 47

GFSFLT2_prec_cthk_078.txt.gz
RH
49 47 46 43 42 40 38 39 38 36 34 30 30 31 33 35 40 41 47 50 58 72 83 94 98 98 97
46 43 36 31 28 31 35 32 30 30 30 29 29 31 32 35 39 42 45 51 57 59 65 72 82 89 97
35 35 31 29 27 26 25 26 25 26 28 31 33 36 38 35 36 38 42 46 50 55 58 59 64 66 75
29 28 28 27 26 25 25 23 22 22 22 24 29 32 35 38 37 37 39 42 45 48 49 54 56 55 58
27 27 25 25 24 24 24 24 25 25 26 26 24 23 23 25 29 34 37 38 39 44 48 47 48 47 47
26 27 28 28 28 27 27 27 27 28 27 26 24 24 23 22 21 20 20 22 27 34 38 44 48 48 47
32 31 31 29 28 28 29 28 28 28 28 27 26 27 25 25 24 23 21 20 19 19 19 19 19 20 21
32 31 31 31 30 29 29 29 30 30 30 29 29 29 29 30 29 29 27 26 24 22 19 18 19 20 21
35 36 34 32 32 32 30 30 29 33 31 33 33 33 34 34 33 31 26 21 21 21 22 23 23 24 29
39 37 37 36 35 34 33 33 32 36 37 39 38 38 38 34 26 23 23 23 24 24 25 25 27 27 27
43 42 41 40 38 37 36 37 38 40 42 43 42 39 31 26 24 24 24 25 27 27 27 28 29 30 29
51 49 47 47 44 43 42 43 44 44 45 44 36 28 26 25 25 26 28 29 30 31 32 32 33 34 34
57 56 54 52 50 47 45 45 45 44 41 32 26 25 26 28 29 29 29 30 31 32 35 37 39 40 43
62 63 61 58 55 53 50 49 48 42 31 23 23 26 30 31 31 30 30 31 33 36 38 41 41 41 41
68 68 65 63 60 58 55 54 52 38 26 27 29 31 33 33 33 33 36 38 41 43 46 46 46 48 48
70 70 70 68 66 63 60 58 46 31 31 33 35 36 36 36 37 40 42 42 45 47 49 49 49 49 48
71 72 73 73 71 69 67 57 37 35 37 38 39 39 40 40 42 46 43 46 48 49 50 52 49 46 46

GFSFLT2_prec_cthk_081.txt.gz
RH
48 50 50 47 39 33 35 36 40 38 34 31 27 25 28 28 31 36 36 37 44 52 63 68 79 81 88
51 50 46 41 35 28 25 25 25 24 24 25 25 26 27 29 34 37 41 42 49 50 56 59 63 63 69
44 35 35 33 30 29 27 27 28 27 27 28 28 29 30 35 35 38 40 43 44 51 52 54 60 62 64
33 31 30 29 28 27 26 25 24 23 23 23 24 26 29 31 35 36 37 37 41 43 48 52 56 59 60
29 28 25 25 26 26 25 26 25 24 27 26 26 25 24 23 24 28 33 37 40 38 39 42 45 49 52
26 28 29 30 32 30 28 27 27 26 27 26 25 25 24 24 23 23 23 23 26 35 36 33 36 39 43
32 35 35 34 32 30 29 29 27 27 28 27 27 27 27 27 26 26 24 23 23 22 22 22 22 23 26
38 37 35 34 33 31 30 30 30 29 30 29 29 30 31 30 30 31 31 30 28 25 20 15 13 13 12
40 38 38 37 35 34 33 33 33 31 32 34 34 34 35 35 35 35 34 30 23 20 19 19 20 20 20
44 45 43 41 39 38 38 36 36 37 38 39 39 40 40 39 39 37 29 24 22 21 21 21 22 23 24
51 51 49 47 46 44 44 43 42 43 44 44 44 45 44 42 35 25 23 23 23 24 24 25 25 26 27
55 54 56 54 52 51 50 49 47 47 48 47 46 45 40 30 23 22 23 24 26 26 26 27 27 28 29
56 58 63 64 60 57 56 54 51 50 49 48 47 43 33 25 24 24 25 25 25 26 27 28 28 30 33
60 66 69 69 66 62 60 58 56 54 53 52 49 37 29 25 27 28 29 29 28 30 31 33 34 35 36
65 74 72 70 68 66 64 64 62 59 57 57 50 34 29 31 31 33 33 33 33 34 35 36 38 40 41
78 72 71 71 70 70 69 68 68 66 65 64 44 33 35 36 37 37 37 35 36 38 38 39 39 43 45
71 73 73 73 74 74 75 75 74 74 73 62 39 39 40 41 42 41 38 38 38 39 40 42 44 47 46

GFSFLT2_prec_cthk_084.txt.gz
RH
51 54 50 50 51 48 35 28 33 36 38 30 27 25 23 24 26 31 34 33 36 39 52 70 72 71 74
52 51 52 52 50 42 34 26 27 25 25 24 23 24 25 28 30 33 39 41 41 47 51 58 62 68 67
54 55 48 44 37 32 31 30 28 27 25 25 26 27 28 29 31 33 38 41 47 47 54 55 57 65 64
61 45 36 32 31 30 28 27 25 24 23 22 23 23 24 26 28 31 33 35 40 44 49 49 52 53 53
41 36 30 30 27 26 27 28 26 26 25 24 25 24 23 22 22 23 28 31 34 35 41 44 46 49 49
41 38 34 30 31 31 32 31 29 28 27 26 25 24 24 24 23 22 23 23 25 29 36 37 38 39 39
37 37 37 38 37 35 34 33 31 30 28 27 26 26 25 26 25 25 26 25 24 25 25 26 29 30 31
46 44 46 42 40 39 37 36 34 32 30 29 29 29 29 30 30 30 31 31 30 30 29 27 21 15 13
48 49 47 45 44 42 40 38 36 36 36 34 34 35 35 35 35 35 36 36 35 35 31 24 19 18 18
51 50 52 53 51 47 44 42 40 40 40 41 40 40 40 40 40 40 40 39 36 29 22 20 19 19 20
51 52 57 59 58 55 53 50 49 48 46 46 45 46 45 44 43 40 38 33 27 23 21 21 22 23 22
54 55 58 60 63 61 60 59 57 54 52 50 50 49 48 46 44 40 33 27 24 23 23 24 24 23 23
55 57 60 60 64 70 70 68 64 60 58 55 53 53 52 50 47 37 30 27 24 25 26 26 25 25 25
55 58 64 65 72 79 76 72 67 63 61 59 58 57 57 56 51 38 33 30 29 30 29 29 28 29 29
59 71 72 76 83 77 74 73 69 66 66 65 63 63 64 63 52 39 36 33 34 34 33 32 32 33 33
74 80 81 81 76 74 74 73 74 73 70 70 70 70 70 68 52 42 39 36 37 38 37 35 33 33 33
73 81 87 83 77 76 76 77 77 78 77 75 74 74 76 70 51 46 41 42 41 41 39 37 35 34 37

GFSFLT2_prec_cthk_087.txt.gz
RH
61 61 61 59 57 56 57 45 31 31 31 35 30 27 25 23 24 26 26 29 28 30 32 39 60 67 71
58 61 60 58 60 58 56 43 36 27 26 25 23 20 21 24 28 30 34 38 36 40 46 50 60 62 69
61 59 61 63 61 53 47 40 31 28 27 25 23 22 23 26 29 32 36 42 44 45 50 57 65 64 57
62 64 67 65 46 43 42 34 30 25 24 24 24 23 22 23 26 29 33 36 41 42 52 55 61 66 71
73 70 53 43 41 38 33 30 28 27 28 29 28 26 25 24 23 23 25 31 33 40 44 44 53 54 54
58 48 46 39 36 39 36 35 34 35 34 33 30 28 26 25 24 22 22 22 24 29 35 38 41 41 42
49 46 41 46 46 39 42 42 40 37 36 34 32 30 29 28 26 25 25 25 24 24 24 27 33 38 38
49 53 50 53 49 49 48 45 42 38 37 36 34 33 32 32 30 30 30 30 30 30 30 30 30 29 27
52 52 56 52 54 54 51 48 43 41 40 39 38 38 38 37 36 35 36 36 36 36 37 37 36 34 28
61 58 56 59 58 58 58 54 48 45 44 43 44 43 43 42 42 42 41 41 41 40 39 37 32 25 21
58 59 60 58 58 61 62 61 57 54 52 52 51 50 49 49 47 46 45 43 42 39 34 29 25 24 22
59 59 63 60 58 60 64 67 65 63 61 60 58 57 55 53 53 49 48 47 45 39 32 29 26 25 22
58 58 58 59 59 60 64 73 82 79 75 70 65 61 58 55 53 51 51 51 47 39 33 30 30 25 24
56 57 56 56 56 62 81 82 85 81 77 72 68 65 62 60 59 56 55 55 52 42 36 34 33 29 28
51 51 54 62 75 83 83 81 77 75 75 75 72 70 70 69 69 66 64 62 58 48 40 37 37 34 32
61 71 76 80 78 80 81 81 77 75 75 75 77 76 76 75 74 72 69 67 61 50 41 39 36 36 36
66 66 65 69 76 79 85 83 81 79 77 77 77 78 79 82 79 79 75 71 65 53 45 43 38 38 37

GFSFLT2_prec_cthk_090.txt.gz
RH
61 59 64 66 65 66 61 60 58 50 39 36 41 37 34 32 24 21 25 25 26 26 25 29 34 48 68
64 64 69 68 64 64 58 63 62 50 35 32 27 23 22 20 21 22 26 29 33 36 36 38 43 56 66
72 72 68 68 67 67 67 66 63 43 38 36 25 22 21 23 25 28 31 35 41 43 49 51 54 61 64
72 74 76 72 72 74 58 54 49 44 40 26 26 24 22 23 24 26 31 36 43 42 47 55 57 54 57
75 76 79 81 70 55 51 47 42 37 30 31 29 28 29 28 27 26 26 31 36 42 43 49 50 55 59
83 82 70 58 48 50 46 40 37 37 34 36 38 36 34 31 29 27 25 24 28 33 39 40 45 50 50
60 53 51 57 55 47 47 50 46 44 47 45 43 41 37 35 32 31 29 26 24 24 25 30 37 39 42
50 53 52 54 55 53 54 52 51 53 51 48 45 40 38 37 36 35 35 33 30 29 28 27 27 27 29
63 62 57 56 60 60 58 61 58 55 53 50 47 44 42 42 41 40 39 38 37 37 37 36 35 35 35
66 62 64 64 59 63 65 61 62 61 58 55 52 50 47 46 45 45 45 44 44 44 44 43 42 40 39
67 68 64 62 66 65 60 61 65 66 65 63 60 57 55 54 52 52 52 52 51 48 47 45 43 40 35
59 61 63 61 63 69 65 62 65 68 71 70 68 66 64 61 60 59 58 57 55 53 51 48 45 40 34
63 68 64 62 63 65 62 60 60 67 83 85 83 77 74 70 67 64 63 61 59 57 55 52 49 43 36
53 55 55 54 54 55 57 64 73 79 78 79 79 79 74 71 69 66 65 64 64 62 61 58 55 50 41
48 49 50 53 57 67 77 79 78 76 77 75 74 76 76 75 74 71 69 69 67 65 64 63 60 56 46
46 48 52 64 72 75 74 77 79 78 80 78 76 75 77 79 79 77 75 73 71 70 69 68 65 58 50
50 50 55 59 62 65 70 74 76 78 83 83 82 81 80 81 83 85 83 78 76 76 73 71 70 61 50

GFSFLT2_prec_cthk_093.txt.gz
RH
55 59 62 65 63 67 66 68 68 66 64 54 44 47 47 44 39 35 27 22 24 25 22 27 30 32 39
56 58 60 64 70 71 72 70 70 68 67 53 40 35 33 28 20 20 23 23 28 32 30 28 33 36 41
59 63 65 70 71 74 76 71 72 74 69 55 43 33 37 24 21 22 26 31 37 41 41 43 44 49 52
64 67 70 74 75 76 77 77 66 63 55 47 43 42 29 24 24 22 26 34 40 44 51 50 52 52 58
68 71 72 74 78 80 78 64 57 57 50 45 39 36 29 31 27 25 26 31 40 45 47 53 54 54 58
74 77 81 84 75 60 52 51 48 43 46 39 42 37 36 36 35 34 30 28 32 43 43 44 54 55 56
77 73 64 56 57 59 56 57 53 53 49 47 48 48 48 46 44 40 36 31 29 29 37 40 42 43 46
47 49 51 55 57 60 60 59 58 61 58 56 57 55 51 48 46 43 39 37 34 31 30 28 27 31 38
54 55 58 60 59 58 63 63 65 66 66 63 59 55 52 50 47 45 43 42 40 38 36 34 32 30 30
59 61 59 60 64 63 63 71 68 66 69 70 65 61 57 54 52 50 48 47 45 44 42 41 40 39 39
60 63 66 66 64 64 68 71 69 65 66 69 71 69 64 61 58 56 54 53 52 51 50 48 49 48 46
56 58 60 61 63 64 65 66 67 67 68 73 75 73 73 72 69 65 63 62 60 58 57 56 55 54 52
57 60 63 68 66 64 62 60 60 60 65 73 76 80 79 78 77 75 74 71 69 67 65 64 62 60 58
54 54 55 55 54 54 54 55 63 71 73 75 75 74 76 78 76 74 72 72 71 69 68 67 66 66 64
49 48 49 49 50 51 54 68 76 74 73 77 76 76 74 76 78 77 77 76 76 76 75 74 72 70 68
47 47 48 47 48 50 58 67 71 74 76 74 74 82 82 79 79 78 79 78 78 78 77 77 76 74 73
50 53 53 51 52 53 57 61 65 73 77 79 83 86 87 87 85 84 81 85 85 83 82 82 82 79 75

GFSFLT2_prec_cthk_096.txt.gz
RH
43 45 49 51 56 59 63 66 67 68 68 69 64 60 54 55 51 54 53 43 29 27 23 28 31 31 33
46 50 52 55 59 62 68 70 71 73 74 68 68 55 45 44 45 38 40 26 23 28 25 27 32 34 33
51 54 56 59 62 66 70 73 75 77 75 75 72 51 38 37 33 31 31 27 25 34 36 35 36 39 39
54 57 60 63 66 69 73 77 79 81 75 75 61 45 43 37 41 37 27 30 32 40 47 51 50 51 50
56 60 64 67 69 72 75 79 77 66 63 55 44 47 50 48 42 32 31 29 34 40 55 55 55 58 59
60 65 69 73 77 79 70 60 57 55 54 54 50 50 43 44 36 34 35 27 32 45 48 59 61 59 68
65 69 73 70 63 58 56 58 58 56 55 54 52 51 49 45 42 42 40 36 36 37 48 50 57 60 60
51 55 54 52 54 56 55 57 60 59 58 62 59 56 56 53 52 51 49 48 44 39 36 40 46 50 55
43 44 48 51 54 56 58 61 64 65 66 68 66 64 61 59 57 54 51 49 47 44 41 36 33 33 35
46 49 53 57 58 59 59 60 65 66 64 65 70 73 69 64 59 55 52 50 49 49 47 44 42 39 37
52 56 58 60 64 61 58 61 65 68 68 71 73 71 72 71 68 61 57 55 53 51 50 49 47 45 44
59 59 57 58 61 61 60 62 66 68 71 68 68 72 73 68 67 68 63 60 60 58 56 54 52 51 50
62 59 56 58 61 68 68 65 61 61 59 64 70 70 69 71 75 75 75 71 70 67 64 62 61 60 59
61 60 57 58 57 56 56 56 55 57 64 72 70 68 71 73 72 75 76 74 72 75 76 73 72 71 69
62 57 54 55 53 52 52 52 53 58 72 72 74 75 73 75 76 72 75 77 77 76 74 74 74 75 75
61 54 50 48 49 49 49 50 51 56 64 66 70 74 77 80 82 80 78 78 78 79 80 79 77 75 75
59 52 47 47 48 52 55 53 53 55 58 65 75 77 79 83 87 88 86 84 83 85 88 88 87 83 80

GFSFLT2_prec_cthk_099.txt.gz
RH
41 42 42 43 45 47 49 53 56 60 61 66 67 67 65 58 48 53 55 57 57 53 45 38 34 32 29
42 43 45 47 48 51 55 57 62 64 67 68 70 68 69 53 44 46 45 48 49 48 40 27 33 39 34
41 44 46 48 51 53 56 59 62 66 68 71 71 73 66 48 37 35 37 44 44 44 37 29 30 34 34
45 48 52 53 54 56 59 62 66 68 69 72 67 65 51 46 41 41 42 38 50 44 39 43 40 37 41
48 52 53 54 57 60 62 65 70 72 64 57 53 49 50 50 49 45 50 51 46 47 46 55 53 50 53
49 52 56 59 62 65 68 68 63 51 49 49 50 52 53 55 54 52 46 42 39 48 55 61 54 64 60
48 53 59 60 64 63 56 57 55 50 48 49 51 51 51 52 48 53 45 39 41 40 45 55 57 61 61
47 51 51 48 51 50 54 53 52 53 52 54 57 56 56 57 56 56 52 48 47 40 38 50 55 59 59
38 37 39 43 46 49 49 51 52 55 58 61 62 64 66 63 59 60 57 57 56 54 49 47 47 50 51
40 39 40 44 48 51 52 53 55 56 56 60 63 64 68 70 71 66 62 60 58 54 52 49 46 43 41
41 42 45 49 53 55 57 54 55 58 60 63 65 69 70 71 74 72 70 64 57 54 52 50 50 50 49
44 50 52 56 57 60 61 59 58 58 62 66 68 65 63 69 72 70 66 66 64 59 56 55 55 52 52
50 55 57 59 59 58 57 59 61 61 62 60 60 64 64 66 67 68 70 71 73 71 65 60 59 58 58
54 59 60 58 59 58 59 60 61 57 56 56 59 65 66 66 66 68 69 69 72 72 72 73 73 69 66
53 58 60 62 62 59 57 56 55 54 54 56 58 66 63 66 70 73 75 73 72 74 75 74 73 74 75
57 62 62 64 63 56 55 52 50 50 51 54 57 60 60 66 72 75 78 77 76 76 76 78 77 77 76
62 63 63 71 64 54 52 51 49 49 55 56 53 53 59 69 76 75 79 83 84 82 82 82 83 83 84

GFSFLT2_prec_cthk_102.txt.gz
RH
45 44 43 41 40 40 43 45 47 48 51 52 59 59 59 59 58 50 49 56 56 56 53 51 50 52 41
38 39 39 39 41 43 45 46 47 52 54 58 62 61 63 63 58 43 43 46 51 55 57 58 54 49 42
38 39 40 40 43 45 46 46 51 53 57 62 63 64 64 65 48 40 38 38 41 51 56 64 56 44 46
41 41 42 45 45 46 46 48 50 54 57 61 66 60 56 46 43 41 39 42 50 58 60 65 47 40 40
44 44 45 46 46 49 51 53 55 58 62 60 54 49 41 44 47 46 47 47 52 63 74 66 51 49 42
50 48 43 44 50 51 54 58 59 52 46 43 45 43 45 48 49 51 51 52 54 67 64 71 73 59 61
49 46 43 45 51 54 55 51 45 48 44 41 44 45 48 49 47 48 48 51 45 45 59 65 66 75 64
43 44 44 45 48 46 46 45 46 49 47 48 49 51 53 54 54 53 52 52 49 42 47 59 69 66 63
39 43 42 44 44 45 42 43 47 49 52 56 57 57 61 62 61 59 58 57 55 52 47 42 50 56 60
41 40 38 35 38 41 43 44 50 52 56 56 56 60 62 64 67 68 66 62 60 57 58 59 53 55 58
43 39 37 35 39 43 47 51 56 57 58 57 60 64 68 70 70 74 72 69 67 62 60 58 57 53 50
43 38 38 37 43 49 52 59 60 58 59 60 66 69 65 63 66 67 67 66 63 63 63 57 54 53 52
42 40 42 44 50 55 57 60 61 61 60 61 67 65 62 60 62 64 66 67 68 68 66 62 60 57 55
43 45 45 50 55 57 59 59 60 62 66 68 62 59 60 63 62 61 66 68 68 69 68 69 68 67 64
48 47 47 55 58 58 58 60 63 63 61 60 60 57 56 60 61 58 65 72 75 73 72 73 73 71 72
52 54 51 58 61 60 63 64 63 61 60 57 56 55 55 57 60 56 64 73 76 77 76 75 75 75 76
58 60 58 59 62 63 64 65 63 59 58 56 55 54 58 58 56 55 70 74 77 80 81 79 78 78 78

GFSFLT2_prec_cthk_105.txt.gz
RH
47 46 45 43 41 39 39 39 40 43 43 43 45 49 52 50 55 53 50 39 48 50 54 56 51 50 46
44 43 41 39 39 40 41 43 47 46 45 45 48 50 52 55 57 53 40 36 40 46 55 53 53 55 57
42 40 40 40 43 44 46 47 48 47 48 50 51 52 52 56 57 42 36 36 35 43 50 57 59 62 62
42 41 43 44 45 47 47 49 49 48 51 53 53 54 52 53 41 38 36 35 33 46 56 59 62 64 67
45 44 45 46 48 49 51 50 50 52 53 54 53 48 43 39 37 39 39 42 39 54 68 77 73 68 52
44 48 50 49 51 48 51 50 53 56 52 46 40 38 36 40 39 42 43 46 47 54 71 79 81 70 59
49 54 53 49 48 52 53 54 55 49 41 38 34 37 38 43 43 41 43 43 45 48 58 80 83 76 63
53 55 51 50 49 53 57 54 50 44 43 43 40 44 46 48 46 46 48 46 47 43 40 58 74 77 71
60 59 54 50 51 53 52 47 48 45 44 48 49 54 54 54 55 54 54 54 54 53 47 46 59 67 68
62 57 55 50 52 51 53 46 45 43 46 53 57 56 57 57 59 60 61 60 58 58 56 57 52 50 59
61 61 55 52 44 42 44 42 44 45 52 61 59 58 58 61 66 68 71 72 70 68 65 61 58 55 55
69 67 60 54 47 43 40 43 47 53 59 62 63 63 66 65 61 64 65 66 69 66 66 65 61 58 58
76 70 64 56 50 44 41 44 53 59 64 62 65 68 69 63 59 60 63 66 68 69 69 65 60 60 55
78 73 66 58 50 44 45 52 57 63 65 63 67 73 68 62 61 60 58 60 63 67 68 69 69 65 61
82 75 65 57 50 46 49 56 60 63 63 63 73 72 65 61 60 61 59 58 61 69 72 71 71 71 71
80 70 61 54 50 50 52 60 62 64 65 65 69 70 66 61 57 58 60 59 63 72 74 75 74 74 75
79 71 62 57 54 54 58 63 65 67 66 63 66 68 68 63 58 56 56 56 63 74 76 79 79 77 77

GFSFLT2_prec_cthk_108.txt.gz
RH
64 60 59 52 48 46 45 40 36 37 38 41 42 41 41 42 42 44 45 48 38 35 42 46 51 50 49
62 57 53 48 45 44 43 40 41 40 43 45 43 43 44 43 45 47 48 40 32 31 41 47 50 55 57
68 61 53 46 45 44 42 43 43 42 44 45 46 45 44 46 48 50 40 33 30 31 42 49 54 54 63
67 63 57 47 46 46 46 46 47 48 50 48 47 47 47 46 46 40 32 31 30 31 45 53 57 58 62
72 63 58 50 45 46 48 48 48 50 50 49 49 49 48 42 35 30 32 31 33 36 55 66 63 66 65
87 74 59 49 47 47 49 48 50 50 52 51 48 41 37 35 32 33 35 37 40 40 57 72 76 78 74
87 78 60 51 51 51 49 47 49 53 52 50 41 32 30 32 35 37 38 38 41 41 52 67 76 80 76
77 74 61 55 55 55 53 52 53 55 50 45 40 36 36 40 40 43 43 43 42 41 43 55 76 79 77
74 72 66 60 59 58 55 54 54 50 50 48 43 38 40 46 47 51 53 52 50 44 44 47 56 72 71
77 75 73 68 63 63 60 59 54 50 50 50 45 45 47 53 56 58 58 56 56 52 52 51 48 56 68
78 79 76 70 63 65 64 64 59 54 45 48 45 48 51 57 60 65 66 66 65 63 62 60 57 57 56
88 88 79 74 66 63 64 64 59 55 51 47 50 52 55 61 67 64 63 64 65 68 69 68 68 64 59
98 96 86 75 71 66 64 60 56 54 49 51 55 56 61 67 69 60 59 62 64 66 70 72 67 65 62
99 98 86 77 73 72 68 62 57 52 51 55 58 60 68 70 67 60 59 60 62 62 63 68 70 69 61
98 98 87 81 80 77 69 61 56 51 53 57 61 63 71 73 67 64 62 60 59 60 61 66 68 68 69
98 98 94 91 82 72 66 62 58 55 57 61 62 63 69 74 70 65 63 59 55 58 64 68 71 71 70
97 98 97 89 74 68 64 60 59 59 59 63 64 65 68 72 71 68 66 60 53 56 62 69 74 74 73

GFSFLT2_prec_cthk_111.txt.gz
RH
90 83 81 77 69 62 55 53 47 43 39 39 38 38 39 37 39 40 41 40 39 33 24 26 35 39 45
82 79 78 74 69 63 52 44 42 41 40 38 38 39 39 39 41 42 40 40 36 24 23 30 36 40 46
92 84 80 76 73 68 52 45 45 44 41 40 40 40 41 40 41 42 40 35 24 24 24 34 37 43 53
95 91 92 89 86 78 63 51 49 48 44 43 43 42 40 40 42 40 35 25 23 24 27 38 43 50 54
98 97 94 94 91 86 79 69 55 54 47 49 46 46 43 42 40 34 26 25 24 25 33 41 53 62 64
93 97 95 96 97 90 81 69 62 55 56 53 48 48 45 41 36 28 27 28 29 30 35 49 52 67 68
78 91 88 95 98 90 83 76 63 58 55 52 53 50 42 34 29 28 29 30 31 31 34 50 56 66 67
90 87 92 90 89 85 80 72 68 62 60 57 54 44 40 34 34 35 33 35 36 34 33 43 56 66 68
81 79 87 79 76 75 72 65 64 63 63 61 54 48 42 38 38 40 39 43 43 43 39 38 51 64 70
92 97 87 85 81 78 73 68 67 64 65 63 55 50 44 43 45 46 48 48 49 49 48 44 43 50 64
90 91 89 91 85 81 78 71 71 68 66 60 57 52 49 49 49 50 52 56 61 59 57 53 51 49 60
93 92 95 95 90 83 81 78 76 69 70 66 55 53 53 54 51 54 58 61 68 67 66 65 63 60 55
93 98 99 98 95 84 81 81 80 75 74 68 61 57 58 56 55 64 62 57 63 66 68 70 69 66 67
98 99 99 98 97 89 81 78 73 71 69 66 65 61 60 57 63 68 61 57 61 65 64 62 66 71 68
98 98 96 95 97 91 83 78 73 71 70 65 64 62 60 61 70 67 64 63 63 61 63 62 61 66 70
94 98 97 98 98 93 85 82 82 79 72 65 62 63 62 67 73 70 70 68 66 62 60 59 62 67 71
98 98 97 95 97 97 97 95 84 75 68 63 60 62 65 70 73 71 75 72 67 63 60 59 63 69 74